カタログに戻る

STARLINK-4088

運用中通信VLEO
NORAD 53155·PAYLOAD·🇺🇸 United States

打ち上げ Jul 17, 2022 から Cape Canaveral Space Force Station

Loading…

次のパス (今後24時間)

TLE

最新Source: CelesTrak SupGP

元期: Sep 14, 2026, 20:48 UTC

1 53155C 22083Z   26257.86715278 -.00005358  00000+0 -15839-3 0  2578
2 53155  53.1597  29.7355 0001140  79.4800 234.1903 15.34377986    12

AllMySatでSTARLINK-4088をリアルタイム追跡

Download on the App Store